Domov               UVHVVR             MKGP            O straneh              
ZDRAVSTVENO VARSTVO RASTLIN
  MREŽA AGROMET. POSTAJ
 ► PROGNOSTIČNA OBVESTILA
AGROMETEOROLOŠKI PODATKI -
ARSO
OBVLADOVANJE TVEGANJ ZARADI
NEUGODNIH VREMENSKIH RAZMER
  ► NARAVNE NESREČE
  ► SUŠA/MOČA
  ► NAMAKANJE
  ► ŽLED (gozdarstvo)
KARTOGRAFSKI PRIKAZI
SPLETNE POVEZAVE
PROJEKTI IN PUBLIKACIJE

AGROMETEOROLOŠKA MREŽA: VREMENSKE POSTAJE IN FENOLOŠKA OPAZOVANJA

Pregled podatkov za lokacijo Selo, meteorološka postaja 37838

Pregled senzorjev na lokaciji

ID Ime Zadnja
vrednost
Datum
zadnje
spremembe
Tip
senzorja
4044 Omočenost lista (U) 0 U 18.7.2018 00:30 A730WET
4045 Padavine (mm) 0 mm 18.7.2018 00:30 Rain-O-Matic
4047 Relativna vlaga 2 m (% RH) 55,43 % RH 18.7.2018 00:30 50YA
4046 Temperatura 2 m (°C) 20,29 °C 18.7.2018 00:30 50YA

Pregled podatkov zadnjih 24 ur

Zap.
št.
Datum in čas Selo
Omočenost
lista
Padavine Relativna
vlaga
2
m
Temperatura
2
m
1 18.7.2018 00:30
2 18.7.2018 00:00
3 17.7.2018 23:30 0 0 56,7 20,3
4 17.7.2018 23:00 0 0 59,5 20,4
5 17.7.2018 22:30 0 0 60,4 20,5
6 17.7.2018 22:00 0 0 60,3 20,5
7 17.7.2018 21:30 0 0 60 20,5
8 17.7.2018 21:00 0 0 58,6 20,8
9 17.7.2018 20:30 0 0 58,2 21,1
10 17.7.2018 20:00 0 0 56,7 21,4
11 17.7.2018 19:30 0 0 55,6 22,4
12 17.7.2018 19:00 0 0 44,5 24,4
13 17.7.2018 18:30 0 0 42,2 24,7
14 17.7.2018 18:00 0 0 39,1 25,5
15 17.7.2018 17:30 0 0 37,3 26,1
16 17.7.2018 17:00 0 0 37 25,6
17 17.7.2018 16:30 0 0 35,9 26,3
18 17.7.2018 16:00 0 0 37,3 26,3
19 17.7.2018 15:30 0 0 36,6 26,2
20 17.7.2018 15:00 0 0 36,6 26,2
21 17.7.2018 14:30 0 0 39,1 26,4
22 17.7.2018 14:00 0 0 40,5 26,6
23 17.7.2018 13:30 0 0 40,8 26,3
24 17.7.2018 13:00 0 0 42,1 26,2
25 17.7.2018 12:30 0 0 41,6 26,3
26 17.7.2018 12:00 0 0 43,7 26,1
27 17.7.2018 11:30 0 0 43,7 26
28 17.7.2018 11:00 0 0 45,6 25,7
29 17.7.2018 10:30 0 0 53,5 25,2
30 17.7.2018 10:00 0 0 51,9 24,8
31 17.7.2018 09:30 0 0 55,6 23,9
32 17.7.2018 09:00 0 0 52,8 23,9
33 17.7.2018 08:30 0 0 54,6 23,3
34 17.7.2018 08:00 0 0 63,3 22,1
35 17.7.2018 07:30 0 0 68,8 20,9
36 17.7.2018 07:00 0 0 65,7 20,1
37 17.7.2018 06:30 0 0 74 19,4
38 17.7.2018 06:00 0 0 64,3 20,1
39 17.7.2018 05:30 0 0 68,2 18,6
40 17.7.2018 05:00 0 0 73,4 17,7
41 17.7.2018 04:30 1 0 81,4 17
42 17.7.2018 04:00 3 0 79,7 17,4
43 17.7.2018 03:30 6 0 82,3 17,1
44 17.7.2018 03:00 3 0 83,1 17,3
45 17.7.2018 02:30 2 0 82,2 17,6
46 17.7.2018 02:00 1 0 77,9 18,3
47 17.7.2018 01:30 1 0 80,5 18,1
48 17.7.2018 01:00 1 0 84 17,9
© 2011 Ministrstvo za kmetijstvo, gozdarstvo in prehrano. Vse pravice pridržane.